Weather reports worldwide

Advertisment
Burlington, nc, United States of America (2072075): temperature & dewpoint: 05.07.2020 10:00:00 - 11.07.2020 10:00:00 (EDT)Burlington, nc, United States of America (2072075): wind speed & gusts: 05.07.2020 10:00:00 - 11.07.2020 10:00:00 (EDT)Burlington, nc, United States of America (2072075): wind direction: 05.07.2020 10:00:00 - 11.07.2020 10:00:00 (EDT)Burlington, nc, United States of America (2072075): reduced air pressure: 05.07.2020 10:00:00 - 11.07.2020 10:00:00 (EDT)Burlington, nc, United States of America (2072075): visibility: 05.07.2020 10:00:00 - 11.07.2020 10:00:00 (EDT)Burlington, nc, United States of America (2072075): precipitation: 05.07.2020 10:00:00 - 11.07.2020 10:00:00 (EDT)
Date & Time tt [°C] td [°C] ff [km/h] ff [kn] fx [km/h] fx [kn] dd ppp [hPa] vv [km] rr [mm]
11.07.2020 10:00:00 - - - - - - - - - -
11.07.2020 09:00:00 26,1 21,1 5 3 - - - 1010,1 16 -
11.07.2020 08:00:00 23,9 20,6 11 6 - - W 1009,7 16 -
11.07.2020 07:00:00 22,2 20,6 8 4 - - WSW 1009,6 16 -
11.07.2020 06:00:00 22,2 20,0 9 5 - - SW 1009,5 16 -
11.07.2020 05:00:00 22,2 20,6 8 4 - - SSW 1009,3 16 -
11.07.2020 04:00:00 22,8 20,6 5 3 - - SW 1009,7 16 -
11.07.2020 03:00:00 22,8 21,1 11 6 - - WSW 1009,7 16 -
11.07.2020 02:00:00 22,8 21,1 5 3 - - SW 1010,1 16 -
11.07.2020 01:00:00 23,3 21,1 0 0 - - N 1010,0 16 0,3
11.07.2020 00:00:00 22,8 21,1 5 3 - - S 1010,8 16 1,3
10.07.2020 23:00:00 23,3 21,7 9 5 - - S 1010,8 13 2,0
10.07.2020 22:00:00 23,3 21,7 15 8 - - WSW 1010,6 4,8 0,5
10.07.2020 21:00:00 27,2 17,8 18 10 54 29 WNW 1009,9 16 -
10.07.2020 20:00:00 30,0 23,3 8 4 - - SSW 1009,2 16 -
10.07.2020 19:00:00 31,1 23,3 8 4 - - SSE 1008,9 16 -
10.07.2020 18:00:00 32,8 21,1 11 6 - - SSE 1008,8 16 -
10.07.2020 17:00:00 32,8 22,2 9 5 - - SSE 1009,1 16 -
10.07.2020 16:00:00 32,8 21,1 9 5 - - S 1009,7 16 -
10.07.2020 15:00:00 32,8 21,7 11 6 - - S 1010,3 16 -
10.07.2020 14:00:00 32,2 21,1 13 7 - - SW 1011,1 16 -
10.07.2020 13:00:00 31,7 21,1 0 0 - - N 1011,8 16 -
10.07.2020 12:00:00 30,6 20,6 8 4 - - SE 1012,2 16 -
10.07.2020 11:00:00 28,9 21,1 9 5 - - - 1012,7 16 -
10.07.2020 10:00:00 28,9 22,2 5 3 - - - 1012,9 16 -
10.07.2020 09:00:00 27,2 22,2 8 4 - - WSW 1012,9 16 -
10.07.2020 08:00:00 25,6 22,2 0 0 - - N 1012,8 16 -
10.07.2020 07:00:00 23,3 21,1 8 4 - - W 1012,7 16 -
10.07.2020 06:00:00 22,8 21,1 0 0 - - N 1012,3 16 -
10.07.2020 05:00:00 22,8 21,1 0 0 - - N 1011,7 16 -
10.07.2020 04:00:00 23,3 21,1 0 0 - - N 1011,8 16 -
10.07.2020 03:00:00 23,9 21,7 0 0 - - N 1011,9 16 -
10.07.2020 02:00:00 23,3 21,7 5 3 - - W 1012,6 16 -
10.07.2020 01:00:00 23,9 21,7 5 3 - - N 1012,2 16 -
10.07.2020 00:00:00 24,4 22,2 0 0 - - N 1012,0 16 -
09.07.2020 23:00:00 24,4 22,2 0 0 - - N 1012,2 16 0,3
09.07.2020 22:00:00 25,6 22,2 0 0 - - N 1012,1 16 0,0
09.07.2020 21:00:00 26,1 21,7 0 0 - - N 1011,7 16 0,0
09.07.2020 20:00:00 29,4 21,7 8 4 - - N 1011,3 16 -
09.07.2020 19:00:00 30,0 21,7 9 5 - - NNE 1011,0 16 -
09.07.2020 18:00:00 31,1 21,7 15 8 - - NE 1010,9 16 -
09.07.2020 17:00:00 30,0 21,1 11 6 - - NE 1011,2 16 -
09.07.2020 16:00:00 31,1 21,7 16 9 - - N 1011,6 16 -
09.07.2020 15:00:00 30,6 21,7 11 6 - - N 1012,1 16 -
09.07.2020 14:00:00 30,6 21,7 11 6 - - N 1012,6 16 -
09.07.2020 13:00:00 30,0 21,7 9 5 - - - 1013,0 16 -
09.07.2020 12:00:00 27,8 22,2 9 5 - - - 1013,5 16 -
09.07.2020 11:00:00 26,7 22,2 13 7 - - N 1013,4 16 -
09.07.2020 10:00:00 25,6 21,7 15 8 - - NNE 1013,9 16 -
09.07.2020 09:00:00 25,6 22,2 16 9 - - N 1013,7 16 -
09.07.2020 08:00:00 25,0 22,2 15 8 - - NNE 1013,3 16 -
09.07.2020 07:00:00 23,9 22,2 9 5 - - NNE 1012,8 13 -
09.07.2020 06:00:00 23,9 21,7 8 4 - - N 1012,2 15 -
09.07.2020 05:00:00 23,9 22,2 9 5 - - N 1011,7 15 -
09.07.2020 04:00:00 23,9 22,2 9 5 - - NNE 1011,8 13 -
09.07.2020 03:00:00 23,3 22,2 5 3 - - N 1011,9 15 -
09.07.2020 02:00:00 23,3 21,7 0 0 - - N 1012,3 16 -
09.07.2020 01:00:00 23,9 22,2 8 4 - - NNE 1012,5 16 -
09.07.2020 00:00:00 23,9 22,2 8 4 - - N 1013,0 16 -
08.07.2020 23:00:00 23,9 22,2 9 5 - - NNE 1012,8 16 -
08.07.2020 22:00:00 23,9 22,2 5 3 - - N 1012,7 16 0,0
08.07.2020 21:00:00 23,9 21,7 8 4 - - N 1012,2 16 0,0
08.07.2020 20:00:00 23,9 21,7 11 6 - - N 1012,6 16 2,5
08.07.2020 19:00:00 23,9 21,7 16 9 - - N 1012,4 3,2 1,5
08.07.2020 18:00:00 23,3 21,1 18 10 - - NNE 1012,0 4,8 2,8
08.07.2020 17:00:00 31,1 20,6 9 5 - - NE 1011,2 16 -
08.07.2020 16:00:00 30,6 21,1 16 9 - - NNE 1011,6 16 0,0
08.07.2020 15:00:00 30,6 20,6 18 10 - - N 1012,4 16 -
08.07.2020 14:00:00 30,6 21,1 15 8 - - NNE 1013,5 16 -
08.07.2020 13:00:00 30,0 20,6 15 8 - - NNE 1014,1 16 -
08.07.2020 12:00:00 28,3 21,1 13 7 - - N 1014,5 16 0,0
08.07.2020 11:00:00 27,2 21,1 9 5 - - ENE 1014,9 16 0,0
08.07.2020 10:00:00 26,7 21,1 15 8 - - NNE 1015,0 16 -
08.07.2020 09:00:00 25,6 21,1 11 6 - - NE 1014,9 16 -
08.07.2020 08:00:00 24,4 21,1 9 5 - - N 1014,8 16 -
08.07.2020 07:00:00 23,9 21,7 5 3 - - ENE 1014,3 16 -
08.07.2020 06:00:00 23,9 21,7 5 3 - - NE 1014,1 16 -
08.07.2020 05:00:00 23,3 21,7 5 3 - - NE 1014,0 16 -
08.07.2020 04:00:00 23,9 21,7 5 3 - - NE 1014,6 16 -
08.07.2020 03:00:00 23,9 21,7 5 3 - - NNE 1014,6 16 -
08.07.2020 02:00:00 23,3 21,1 0 0 - - N 1014,9 16 -
08.07.2020 01:00:00 23,9 21,7 0 0 - - N 1015,8 16 -
08.07.2020 00:00:00 23,9 21,1 0 0 - - N 1016,2 16 -
07.07.2020 23:00:00 23,3 21,1 5 3 - - NE 1015,9 16 -
07.07.2020 22:00:00 23,9 21,7 0 0 - - N 1016,0 16 -
07.07.2020 21:00:00 24,4 21,7 0 0 - - N 1015,5 16 -
07.07.2020 20:00:00 25,6 21,1 0 0 - - N 1015,4 16 -
07.07.2020 19:00:00 27,2 21,1 5 3 - - - 1015,2 16 -
07.07.2020 18:00:00 26,7 21,1 8 4 - - SE 1015,6 16 -
07.07.2020 17:00:00 26,7 20,6 11 6 - - - 1016,1 16 -
07.07.2020 16:00:00 27,2 21,1 9 5 - - S 1016,7 16 -
07.07.2020 15:00:00 28,9 21,7 11 6 - - S 1016,8 16 -
07.07.2020 14:00:00 - - - - - - - - - -
07.07.2020 13:00:00 29,4 21,1 9 5 - - SSW 1017,3 16 -
07.07.2020 12:00:00 30,0 21,1 5 3 - - NE 1017,4 16 -
07.07.2020 11:00:00 27,8 21,7 9 5 - - - 1017,6 16 -
07.07.2020 10:00:00 27,2 22,2 9 5 - - ESE 1017,5 16 -
07.07.2020 09:00:00 25,0 21,7 0 0 - - N 1017,5 16 -
07.07.2020 08:00:00 23,9 21,1 5 3 - - - 1017,3 11 -
07.07.2020 07:00:00 21,7 20,0 0 0 - - N 1017,6 6 -
07.07.2020 06:00:00 21,1 19,4 0 0 - - N 1017,2 8 -
07.07.2020 05:00:00 21,1 19,4 0 0 - - N 1017,1 8 -
07.07.2020 04:00:00 21,7 20,0 0 0 - - N 1017,3 10 -
07.07.2020 03:00:00 22,2 20,6 0 0 - - N 1017,4 13 -
07.07.2020 02:00:00 22,2 20,0 0 0 - - N 1018,0 10 -
07.07.2020 01:00:00 22,2 20,0 0 0 - - N 1018,3 15 -
07.07.2020 00:00:00 22,8 20,6 0 0 - - N 1018,3 16 -
06.07.2020 23:00:00 25,6 20,6 0 0 - - N 1017,9 16 -
06.07.2020 22:00:00 26,7 21,1 0 0 - - N 1017,5 16 -
06.07.2020 21:00:00 28,3 21,1 11 6 - - SSW 1016,8 16 -
06.07.2020 20:00:00 29,4 20,0 5 3 - - S 1016,4 16 -
06.07.2020 19:00:00 31,1 19,4 5 3 - - S 1016,6 16 -
06.07.2020 18:00:00 32,2 18,9 8 4 - - - 1016,5 16 -
06.07.2020 17:00:00 32,8 18,3 11 6 - - S 1016,5 16 -
06.07.2020 16:00:00 32,2 18,9 11 6 - - S 1017,4 16 -
06.07.2020 15:00:00 32,2 18,3 15 8 - - S 1017,7 16 -
06.07.2020 14:00:00 32,2 17,8 9 5 - - - 1018,1 16 -
06.07.2020 13:00:00 31,7 17,2 13 7 - - S 1018,5 16 -
06.07.2020 12:00:00 31,1 18,9 13 7 - - S 1018,7 16 -
06.07.2020 11:00:00 29,4 21,1 8 4 - - - 1018,7 16 -
06.07.2020 10:00:00 27,8 21,1 9 5 - - SW 1018,5 16 -
06.07.2020 09:00:00 26,1 20,6 8 4 - - SW 1018,2 16 -
06.07.2020 08:00:00 23,9 20,6 5 3 - - S 1018,0 16 -
06.07.2020 07:00:00 21,7 20,0 - - - - - 1017,5 13 -
06.07.2020 06:00:00 20,6 18,9 0 0 - - N 1016,8 11 -
06.07.2020 05:00:00 21,7 19,4 0 0 - - N 1016,2 15 -
06.07.2020 04:00:00 22,8 20,0 0 0 - - N 1016,0 16 -
06.07.2020 03:00:00 23,3 20,0 0 0 - - N 1016,1 16 -
06.07.2020 02:00:00 24,4 20,0 5 3 - - SW 1016,2 16 -
06.07.2020 01:00:00 24,4 21,1 0 0 - - N 1017,0 16 -
06.07.2020 00:00:00 25,0 21,1 0 0 - - N 1016,8 16 -
05.07.2020 23:00:00 25,6 21,7 5 3 - - SE 1016,3 16 -
05.07.2020 22:00:00 26,7 21,7 0 0 - - N 1015,6 16 -
05.07.2020 21:00:00 27,2 21,7 5 3 - - SSE 1014,9 16 -
05.07.2020 20:00:00 28,3 21,1 11 6 - - SE 1014,7 16 -
05.07.2020 19:00:00 28,9 21,7 0 0 - - N 1014,4 16 -
05.07.2020 18:00:00 29,4 20,6 11 6 - - S 1013,8 16 -
05.07.2020 17:00:00 32,8 22,2 9 5 - - - 1013,7 16 -
05.07.2020 16:00:00 33,3 20,6 9 5 - - E 1014,0 16 -
05.07.2020 15:00:00 33,3 21,7 0 0 - - N 1015,0 16 -
05.07.2020 14:00:00 32,8 21,1 5 3 - - - 1015,2 16 -
05.07.2020 13:00:00 31,7 22,2 5 3 - - - 1015,7 16 -
05.07.2020 12:00:00 30,6 21,7 0 0 - - N 1015,9 16 -
05.07.2020 11:00:00 29,4 21,1 5 3 - - S 1015,9 16 -
05.07.2020 10:00:00 27,8 21,7 8 4 - - S 1015,7 16 -

tt = temperature
td = dewpoint
ff = wind speed
fx = gusts
dd = wind direction
ppp = reduced air pressure
vv = visibility
rr = precipitation

Next stations